When you browse on this site, cookies collect data to enhance your experience and personalize the content and advertising you see.
Visit our Privacy Policy to learn more. By continuing to use the site, you agree to this use of cookies and data.
  • In United Kingdom
  • List of Countries
  • For 7 days
  • Water Temperature
  • Satellite Maps
  • Weather Map
  • Weather Widgets
  • user-avatar
    Login

    Hourly Weather Lusaka

    Today, 21 March, Thursday

    Time Temperature Precipitation Wind Pressure Humidity
    00:00 +22°C° 0 mm 1 mps 654 mmHg 50%
    01:00 +22°C° 0 mm 1 mps 654 mmHg 52%
    02:00 +21°C° 0 mm 1 mps 654 mmHg 56%
    03:00 +19°C° 0 mm 0 mps 654 mmHg 58%
    04:00 +18°C° 0 mm 0 mps 654 mmHg 60%
    05:00 +18°C° 0 mm 0 mps 654 mmHg 62%
    06:00 +19°C° 0 mm 0 mps 655 mmHg 60%
    07:00 +21°C° 0 mm 0 mps 656 mmHg 58%
    08:00 +25°C° 0 mm 1 mps 657 mmHg 61%
    09:00 +28°C° 0 mm 1 mps 658 mmHg 54%
    10:00 +29°C° 0 mm 0 mps 658 mmHg 48%
    11:00 +31°C° 0 mm 0 mps 659 mmHg 41%
    12:00 +34°C° 0 mm 1 mps 658 mmHg 35%
    13:00 +34°C° 0 mm 1 mps 658 mmHg 30%
    14:00 +35°C° 0 mm 2 mps 657 mmHg 26%
    15:00 +34°C° 0 mm 2 mps 657 mmHg 29%
    16:00 +32°C° 0 mm 2 mps 656 mmHg 31%
    17:00 +31°C° 0 mm 2 mps 656 mmHg 34%
    18:00 +29°C° 0 mm 2 mps 656 mmHg 39%
    19:00 +26°C° 0 mm 2 mps 656 mmHg 44%
    20:00 +24°C° 0 mm 1 mps 655 mmHg 49%
    21:00 +23°C° 0 mm 1 mps 656 mmHg 52%
    22:00 +23°C° 0 mm 1 mps 656 mmHg 54%
    23:00 +22°C° 0 mm 1 mps 656 mmHg 57%

    Tomorrow, 22 March, Friday

    Time Temperature Precipitation Wind Pressure Humidity
    00:00 +22°C° 0 mm 1 mps 656 mmHg 59%
    01:00 +21°C° 0 mm 1 mps 656 mmHg 61%
    02:00 +21°C° 0 mm 1 mps 656 mmHg 64%
    03:00 +21°C° 0 mm 1 mps 656 mmHg 66%
    04:00 +20°C° 0 mm 1 mps 655 mmHg 68%
    05:00 +20°C° 0 mm 1 mps 655 mmHg 69%
    06:00 +21°C° 0 mm 1 mps 656 mmHg 67%
    07:00 +23°C° 0 mm 1 mps 657 mmHg 65%
    08:00 +24°C° 0 mm 2 mps 658 mmHg 63%
    09:00 +26°C° 0 mm 2 mps 658 mmHg 57%
    10:00 +28°C° 0 mm 2 mps 659 mmHg 50%
    11:00 +30°C° 0 mm 2 mps 659 mmHg 44%
    12:00 +31°C° 0 mm 2 mps 659 mmHg 41%
    13:00 +33°C° 0 mm 3 mps 658 mmHg 37%
    14:00 +34°C° 0 mm 3 mps 658 mmHg 34%
    15:00 +33°C° 0 mm 3 mps 657 mmHg 37%
    16:00 +31°C° 0 mm 3 mps 657 mmHg 41%
    17:00 +30°C° 0 mm 3 mps 656 mmHg 44%
    18:00 +28°C° 0 mm 2 mps 656 mmHg 49%
    19:00 +26°C° 0 mm 2 mps 656 mmHg 55%
    20:00 +24°C° 0 mm 2 mps 656 mmHg 60%
    21:00 +23°C° 0 mm 2 mps 657 mmHg 64%
    22:00 +23°C° 0 mm 2 mps 657 mmHg 67%
    23:00 +21°C° 0 mm 2 mps 657 mmHg 70%

    Day after tomorrow, 23 March, Saturday

    Time Temperature Precipitation Wind Pressure Humidity
    00:00 +21°C° 0 mm 2 mps 657 mmHg 73%
    01:00 +20°C° 0 mm 2 mps 657 mmHg 76%
    02:00 +20°C° 0 mm 2 mps 657 mmHg 79%
    03:00 +20°C° 0 mm 2 mps 657 mmHg 81%
    04:00 +19°C° 0 mm 2 mps 657 mmHg 84%
    05:00 +19°C° 0 mm 2 mps 657 mmHg 86%
    06:00 +20°C° 0 mm 3 mps 657 mmHg 83%
    07:00 +21°C° 0 mm 4 mps 658 mmHg 80%
    08:00 +22°C° 0 mm 5 mps 659 mmHg 77%
    09:00 +22°C° 0 mm 4 mps 659 mmHg 74%
    10:00 +23°C° 0 mm 4 mps 659 mmHg 70%
    11:00 +25°C° 0 mm 4 mps 659 mmHg 67%
    12:00 +26°C° 0 mm 4 mps 659 mmHg 64%
    13:00 +27°C° 0 mm 4 mps 658 mmHg 60%
    14:00 +28°C° 0 mm 3 mps 658 mmHg 57%
    15:00 +28°C° 0 mm 3 mps 657 mmHg 57%
    16:00 +28°C° 0 mm 3 mps 657 mmHg 56%
    17:00 +28°C° 0 mm 3 mps 657 mmHg 56%
    18:00 +26°C° 0 mm 2 mps 657 mmHg 62%
    19:00 +24°C° 0 mm 2 mps 657 mmHg 69%
    20:00 +21°C° 0 mm 2 mps 657 mmHg 75%
    21:00 +21°C° 0 mm 2 mps 657 mmHg 78%
    22:00 +20°C° 0 mm 2 mps 657 mmHg 80%
    23:00 +20°C° 0 mm 2 mps 657 mmHg 83%

    24 March, Sunday

    Time Temperature Precipitation Wind Pressure Humidity
    00:00 +20°C° 0 mm 2 mps 657 mmHg 84%
    01:00 +19°C° 0 mm 2 mps 656 mmHg 85%
    02:00 +19°C° 0 mm 3 mps 656 mmHg 86%
    03:00 +19°C° 0 mm 3 mps 656 mmHg 88%
    04:00 +19°C° 0 mm 3 mps 656 mmHg 90%
    05:00 +18°C° 0 mm 3 mps 656 mmHg 93%
    06:00 +19°C° 0 mm 3 mps 657 mmHg 88%
    07:00 +20°C° 0 mm 4 mps 658 mmHg 84%
    08:00 +21°C° 0 mm 4 mps 658 mmHg 80%
    09:00 +22°C° 0 mm 4 mps 659 mmHg 75%
    10:00 +23°C° 0 mm 4 mps 659 mmHg 71%
    11:00 +25°C° 0 mm 4 mps 659 mmHg 66%
    12:00 +26°C° 0 mm 4 mps 658 mmHg 61%
    13:00 +27°C° 0 mm 4 mps 658 mmHg 56%
    14:00 +28°C° 0 mm 3 mps 657 mmHg 51%
    15:00 +28°C° 0 mm 3 mps 657 mmHg 51%
    16:00 +28°C° 0 mm 3 mps 656 mmHg 51%
    17:00 +28°C° 0 mm 3 mps 656 mmHg 51%
    18:00 +26°C° 0 mm 2 mps 656 mmHg 56%
    19:00 +24°C° 0 mm 2 mps 656 mmHg 61%
    20:00 +21°C° 0 mm 2 mps 656 mmHg 66%
    21:00 +20°C° 0 mm 2 mps 656 mmHg 68%
    22:00 +20°C° 0 mm 2 mps 656 mmHg 70%
    23:00 +19°C° 0 mm 2 mps 656 mmHg 72%

    25 March, Monday

    Time Temperature Precipitation Wind Pressure Humidity
    00:00 +19°C° 0 mm 2 mps 656 mmHg 72%
    01:00 +19°C° 0 mm 1 mps 656 mmHg 72%
    02:00 +19°C° 0 mm 1 mps 655 mmHg 72%
    03:00 +19°C° 0 mm 1 mps 655 mmHg 74%
    04:00 +18°C° 0 mm 1 mps 655 mmHg 76%
    05:00 +18°C° 0 mm 1 mps 655 mmHg 77%
    06:00 +18°C° 0 mm 2 mps 656 mmHg 74%
    07:00 +20°C° 0 mm 2 mps 657 mmHg 70%
    08:00 +21°C° 0 mm 2 mps 658 mmHg 67%
    09:00 +24°C° 0 mm 3 mps 658 mmHg 60%
    10:00 +26°C° 0 mm 3 mps 659 mmHg 53%
    11:00 +28°C° 0 mm 3 mps 659 mmHg 46%
    12:00 +29°C° 0 mm 3 mps 658 mmHg 44%
    13:00 +30°C° 0 mm 3 mps 658 mmHg 41%
    14:00 +31°C° 0 mm 2 mps 657 mmHg 38%
    15:00 +30°C° 0 mm 2 mps 656 mmHg 41%
    16:00 +29°C° 0 mm 2 mps 656 mmHg 45%
    17:00 +29°C° 0 mm 2 mps 655 mmHg 48%
    18:00 +27°C° 0 mm 2 mps 655 mmHg 53%
    19:00 +25°C° 0 mm 2 mps 655 mmHg 58%
    20:00 +23°C° 0 mm 1 mps 655 mmHg 64%
    21:00 +22°C° 0 mm 1 mps 656 mmHg 66%
    22:00 +22°C° 0 mm 1 mps 656 mmHg 69%
    23:00 +21°C° 0 mm 1 mps 656 mmHg 72%

    26 March, Tuesday

    Time Temperature Precipitation Wind Pressure Humidity
    00:00 +20°C° 0 mm 1 mps 655 mmHg 74%
    01:00 +20°C° 0 mm 1 mps 655 mmHg 76%
    02:00 +19°C° 0 mm 1 mps 655 mmHg 79%
    03:00 +19°C° 0 mm 1 mps 655 mmHg 79%
    04:00 +19°C° 0 mm 1 mps 655 mmHg 79%
    05:00 +19°C° 0 mm 1 mps 655 mmHg 79%
    06:00 +20°C° 0 mm 1 mps 656 mmHg 74%
    07:00 +21°C° 0 mm 1 mps 657 mmHg 69%
    08:00 +23°C° 0 mm 1 mps 658 mmHg 64%
    09:00 +25°C° 0 mm 1 mps 658 mmHg 56%
    10:00 +28°C° 0 mm 1 mps 659 mmHg 48%
    11:00 +30°C° 0 mm 1 mps 659 mmHg 41%
    12:00 +31°C° 0 mm 1 mps 659 mmHg 38%
    13:00 +32°C° 0 mm 1 mps 658 mmHg 35%
    14:00 +33°C° 0 mm 1 mps 658 mmHg 32%
    15:00 +32°C° 0 mm 1 mps 657 mmHg 35%
    16:00 +31°C° 0 mm 1 mps 657 mmHg 38%
    17:00 +30°C° 0 mm 1 mps 656 mmHg 42%
    18:00 +28°C° 0 mm 1 mps 656 mmHg 47%
    19:00 +26°C° 0 mm 1 mps 656 mmHg 52%
    20:00 +24°C° 0 mm 1 mps 656 mmHg 57%
    21:00 +23°C° 0 mm 1 mps 656 mmHg 59%
    22:00 +22°C° 0 mm 1 mps 656 mmHg 62%
    23:00 +22°C° 0 mm 1 mps 656 mmHg 65%
    Show more